Fargo, ND

5:57 AM CST on February 22, 2017 (GMT -0600)
Hector International

Weather History for KFAR - October, 2012

Change the Weather History Date:

Wednesday, October 17, 2012

  Actual Average Record
Temperature  
Mean Temperature 53 °F 45 °F  
Max Temperature 60 °F 56 °F 90 °F (1910)
Min Temperature 45 °F 35 °F 13 °F (1976)
Degree Days  
Heating Degree Days 12 20  
Month to date heating degree days 327 278  
Since 1 July heating degree days 557 548  
Cooling Degree Days 0 0  
Month to date cooling degree days 0 0  
Year to date cooling degree days 795 548  
Moisture  
Dew Point 45 °F    
Average Humidity 74    
Maximum Humidity 93    
Minimum Humidity 55    
Precipitation  
Precipitation 0.93 in 0.07 in 1.25 in (1883)
Month to date precipitation 1.36 1.32  
Year to date precipitation 12.70 19.95  
Snow  
Snow 0.00 in 0.00 in 1.30 in (1990)
Month to date snowfall 1.4 0.2  
Since 1 July snowfall 1.4 0.2  
Since 1 September snowfall 1.4 0.2  
Snow Depth 0.00 in    
Sea Level Pressure  
Sea Level Pressure 29.18 in    
Wind  
Wind Speed 15 mph (West)    
Max Wind Speed 26 mph    
Max Gust Speed 32 mph    
Visibility 7 miles    
Events Rain    
T = Trace of Precipitation, MM = Missing Value Source: NWS Daily Summary

Daily Weather History Graph

Daily Weather History Graph

Search for Another Location

Airport or City:

Trip Planner

Search our weather history database for the weather conditions in past years. The results will help you decide how hot, cold, wet, or windy it might be!

Date:

Astronomy

Oct. 17, 2012 Rise Set
Actual Time 7:48 AM CDT 6:35 PM CDT
Civil Twilight 7:17 AM CDT 7:06 PM CDT
Nautical Twilight 6:42 AM CDT 7:41 PM CDT
Astronomical Twilight 6:07 AM CDT 8:16 PM CDT
Moon 10:36 AM CDT (10/17) 7:59 PM CDT (10/17)
Length of Visible Light 11h 48m
Length of Day
10h 46m
Waxing Crescent, 7% of the Moon is Illuminated
Oct 17
Waxing Crescent
Oct 21
First Quarter
Oct 29
Full
Nov 6
Last Quarter
Nov 13
New

Hourly Weather History & Observations

Time (CDT) Temp. Windchill Dew Point Humidity Pressure Visibility Wind Dir Wind Speed Gust Speed Precip Events Conditions
12:53 AM 59.0 °F - 44.1 °F 58% 29.24 in 10.0 mi SSE 10.4 mph - N/A   Clear
1:53 AM 60.1 °F - 44.1 °F 55% 29.23 in 10.0 mi SSE 10.4 mph - N/A   Clear
2:53 AM 57.0 °F - 44.1 °F 62% 29.24 in 10.0 mi West 11.5 mph - N/A   Mostly Cloudy
3:53 AM 55.0 °F - 44.1 °F 67% 29.21 in 10.0 mi SSW 9.2 mph - 0.00 in   Overcast
4:53 AM 54.0 °F - 45.0 °F 72% 29.20 in 10.0 mi SSW 5.8 mph - N/A   Overcast
5:53 AM 53.1 °F - 46.9 °F 80% 29.19 in 10.0 mi Calm Calm - 0.00 in Rain Light Rain
6:39 AM 53.6 °F - 50.0 °F 88% 29.18 in 4.0 mi South 6.9 mph - 0.03 in Rain Rain
6:50 AM 53.6 °F - 50.0 °F 88% 29.18 in 2.5 mi West 12.7 mph - 0.08 in Rain Rain
6:53 AM 53.1 °F - 50.0 °F 89% 29.18 in 3.0 mi West 12.7 mph - 0.09 in Rain Rain
7:21 AM 53.6 °F - 51.8 °F 94% 29.18 in 6.0 mi West 8.1 mph - 0.04 in Rain Light Rain
7:44 AM 51.8 °F - 48.2 °F 88% 29.17 in 5.0 mi WNW 11.5 mph - 0.07 in Rain Rain
7:53 AM 52.0 °F - 48.9 °F 89% 29.17 in 6.0 mi NW 13.8 mph - 0.08 in Rain Rain
8:42 AM 51.8 °F - 48.2 °F 88% 29.17 in 7.0 mi WNW 10.4 mph - 0.05 in Rain Light Rain
8:53 AM 50.0 °F - 46.9 °F 89% 29.18 in 4.0 mi WNW 10.4 mph - 0.06 in Rain Rain
9:27 AM 50.0 °F - 46.4 °F 87% 29.18 in 2.0 mi WSW 10.4 mph - N/A Rain Rain
9:53 AM 48.9 °F - 46.0 °F 90% 29.18 in 2.5 mi West 6.9 mph - 0.16 in Rain Rain
10:22 AM 48.2 °F - 46.4 °F 93% 29.16 in 4.0 mi WNW 8.1 mph - 0.07 in Rain Rain
10:50 AM 50.0 °F - 46.4 °F 87% 29.16 in 2.5 mi WNW 10.4 mph - 0.14 in Rain Rain
10:53 AM 50.0 °F - 46.9 °F 89% 29.16 in 3.0 mi WNW 10.4 mph - 0.14 in Rain Light Rain
11:53 AM 50.0 °F - 46.0 °F 86% 29.15 in 8.0 mi West 16.1 mph - 0.06 in Rain Light Rain
12:14 PM 50.0 °F - 46.4 °F 87% 29.14 in 8.0 mi West 12.7 mph - 0.02 in Rain Light Rain
12:53 PM 50.0 °F - 46.9 °F 89% 29.14 in 10.0 mi West 15.0 mph - 0.04 in Rain Light Rain
1:21 PM 50.0 °F - 46.4 °F 87% 29.13 in 8.0 mi West 16.1 mph - 0.01 in Rain Light Rain
1:42 PM 51.8 °F - 48.2 °F 88% 29.13 in 9.0 mi West 12.7 mph - 0.02 in Rain Light Rain
1:51 PM 51.8 °F - 48.2 °F 88% 29.12 in 8.0 mi West 13.8 mph 20.7 mph 0.02 in Rain Light Rain
1:53 PM 51.1 °F - 48.0 °F 89% 29.13 in 8.0 mi West 19.6 mph 23.0 mph 0.02 in Rain Light Rain
2:53 PM 48.0 °F - 44.1 °F 86% 29.15 in 9.0 mi West 26.5 mph 32.2 mph 0.03 in Rain Light Rain
3:53 PM 46.9 °F - 43.0 °F 86% 29.16 in 8.0 mi West 21.9 mph 28.8 mph 0.04 in Rain Light Rain
4:53 PM 46.9 °F - 43.0 °F 86% 29.18 in 5.0 mi WNW 20.7 mph - 0.05 in Rain Light Rain
5:53 PM 46.0 °F 37.8 °F 42.1 °F 86% 29.18 in 10.0 mi West 23.0 mph 29.9 mph 0.03 in Rain Light Rain
6:44 PM 46.4 °F 38.7 °F 42.8 °F 87% 29.19 in 10.0 mi West 20.7 mph - 0.01 in Rain Light Rain
6:53 PM 46.0 °F 38.5 °F 42.1 °F 86% 29.21 in 10.0 mi West 19.6 mph 28.8 mph 0.01 in   Overcast
7:53 PM 45.0 °F 37.1 °F 41.0 °F 86% 29.21 in 10.0 mi West 19.6 mph 27.6 mph 0.00 in Rain Light Rain
8:09 PM 44.6 °F 36.4 °F 41.0 °F 87% 29.20 in 10.0 mi West 20.7 mph 27.6 mph 0.00 in Rain Light Rain
8:53 PM 45.0 °F 37.6 °F 41.0 °F 86% 29.21 in 10.0 mi West 17.3 mph - 0.02 in Rain Light Rain
9:46 PM 44.6 °F 36.9 °F 42.8 °F 93% 29.20 in 7.0 mi West 18.4 mph - 0.00 in Rain Light Rain
9:53 PM 45.0 °F 37.6 °F 42.1 °F 90% 29.21 in 8.0 mi West 17.3 mph - 0.01 in Rain Light Rain
10:37 PM 44.6 °F 37.4 °F 42.8 °F 93% 29.19 in 5.0 mi WSW 16.1 mph - N/A Rain Light Rain
10:53 PM 45.0 °F 38.2 °F 42.1 °F 90% 29.20 in 5.0 mi WSW 15.0 mph - 0.04 in Rain Light Rain
11:53 PM 46.0 °F 39.6 °F 42.1 °F 86% 29.17 in 8.0 mi West 15.0 mph - 0.01 in Rain Light Rain